This is the latest recevied weather packets stored in our database for station/object N8AMF. If no packets are shown the sender has not sent any weather packets the latest 10 day(s).
| Time | Temp. | Humidity | Pressure | Rain* | Wind** | Luminosity | Snow |
|---|---|---|---|---|---|---|---|
| 1777937260 | 22.22° C | 53% | 1001.2 hPa | 0 mm | - | 40 W/m² | - |
| 1777936957 | 22.22° C | 53% | 1001 hPa | 0 mm | - | 46 W/m² | - |
| 1777936654 | 22.22° C | 52% | 1001 hPa | 0 mm | - | 49 W/m² | - |
| 1777936351 | 22.22° C | 52% | 1001.1 hPa | 0 mm | - | 51 W/m² | - |
| 1777936046 | 22.22° C | 51% | 1001 hPa | 0 mm | - | 55 W/m² | - |
| 1777935745 | 22.22° C | 52% | 1001.2 hPa | 0 mm | - | 57 W/m² | - |
| 1777935444 | 22.78° C | 52% | 1001.2 hPa | 0 mm | - | 61 W/m² | - |
| 1777935140 | 22.78° C | 53% | 1001.2 hPa | 0 mm | - | 65 W/m² | - |
| 1777934837 | 22.22° C | 53% | 1001.4 hPa | 0 mm | - | 70 W/m² | - |
| 1777934534 | 22.78° C | 54% | 1001.3 hPa | 0 mm | - | 84 W/m² | - |
| 1777934230 | 22.22° C | 55% | 1001.4 hPa | 0 mm | - | 111 W/m² | - |
| 1777933926 | 22.22° C | 55% | 1001.2 hPa | 0 mm | - | 103 W/m² | - |
| 1777933623 | 22.22° C | 56% | 1001.4 hPa | 0 mm | - | 100 W/m² | - |
| 1777933320 | 22.22° C | 57% | 1001.5 hPa | 0 mm | - | 117 W/m² | - |
| 1777933017 | 22.22° C | 56% | 1001.6 hPa | 0 mm | - | 155 W/m² | - |
| 1777932715 | 22.22° C | 57% | 1001.7 hPa | 0 mm | - | 120 W/m² | - |
| 1777932410 | 22.22° C | 55% | 1001.6 hPa | 0 mm | - | 105 W/m² | - |
| 1777932109 | 22.22° C | 55% | 1001.7 hPa | 0 mm | - | 362 W/m² | - |
| 1777931805 | 22.22° C | 55% | 1001.9 hPa | 0 mm | - | 431 W/m² | - |
| 1777931502 | 22.22° C | 54% | 1001.9 hPa | 0 mm | - | 140 W/m² | - |
| 1777931197 | 22.22° C | 55% | 1001.8 hPa | 0 mm | - | 525 W/m² | - |
| 1777930894 | 22.22° C | 53% | 1002.1 hPa | 0 mm | - | 468 W/m² | - |
| 1777930591 | 23.33° C | 52% | 1001.8 hPa | 0 mm | - | 178 W/m² | - |
| 1777930288 | 23.89° C | 49% | 1001.9 hPa | 0 mm | - | 165 W/m² | - |
| 1777929984 | 23.89° C | 50% | 1001.8 hPa | 0 mm | - | 587 W/m² | - |
* Rain latest hour (hover to see other rain measurements)
** Current wind speed in m/s (hover to see current wind gust speed)